[[{"header":{"parameterUnit":"m.s-1","parameterCategory":1,"la1":30.2992,"la2":30.254,"lo1":-89.0895,"lo2":-89.0443,"dy":0.0025,"dx":0.0025,"nx":19,"ny":19,"refTime":"2026-05-01T21:00:00:Z","depth":0,"parameterNumber":2,"parameterNumberName":"U-component_of_WINDS"},"data":[0,0,0,-1.0907,-1.091,-1.1049,-1.1049,-1.1235,-1.1237,0,0,0,0,0,0,0,0,0,0,0,-1.0871,-1.0872,-1.0907,-1.0911,-1.1049,-1.1049,-1.1235,-1.1237,0,0,0,0,0,0,0,0,0,0,0,-1.087,-1.0872,-1.0873,-1.0911,-1.1048,-1.1049,-1.1235,-1.1127,0,0,0,0,0,0,0,0,0,0,-1.0992,-1.0962,-1.0871,-1.0873,-1.0912,-1.1048,-1.1049,-1.1122,-1.1134,-1.1176,0,-1.1213,0,-1.1228,-1.125,-1.1251,0,0,0,-1.0908,-1.0952,-1.0985,-1.0874,-1.0913,-1.1048,-1.0986,-1.1129,-1.1142,-1.1192,-1.1216,-1.1223,-1.1231,-1.1251,-1.1252,-1.15,-1.1501,0,0,-1.0901,-1.0898,-1.0975,-1.0994,-1.0971,-1.0981,-1.099,-1.1137,-1.1163,-1.1217,-1.1227,-1.1234,-1.1252,-1.1254,-1.1499,-1.15,0,0,0,-1.088,-1.0893,-1.0922,-1.0986,-1.101,-1.0985,-1.0995,-1.1157,-1.1166,-1.1229,-1.1236,-1.1254,-1.1256,-1.1497,-1.1499,-1.1562,0,0,0,-1.0876,-1.0881,-1.0919,-1.0919,-1.1008,-1.1085,-1.1012,-1.1156,-1.1173,-1.1235,-1.1254,-1.1258,-1.1496,-1.1498,-1.1557,-1.1593,0,0,0,-1.086,-1.0879,-1.09,-1.0919,-1.0978,-1.1083,-1.1101,-1.116,-1.1178,-1.1251,-1.1258,-1.1495,-1.1498,-1.1553,-1.1586,-1.1659,0,0,0,-1.0844,-1.0954,-1.0901,-1.1027,-1.0977,-1.1118,-1.11,-1.1206,-1.1276,-1.1255,-1.1496,-1.1499,-1.1551,-1.1582,-1.1655,-1.1723,-1.175,0,0,-1.0982,-1.0971,-1.1045,-1.1002,-1.1152,-1.1098,-1.1258,-1.1325,-1.1334,-1.1445,-1.1451,-1.1559,-1.1586,-1.1658,-1.1897,-1.1919,0,0,0,-1.1088,-1.1142,-1.1182,-1.1248,-1.13,-1.1348,-1.139,-1.1414,-1.1508,-1.139,-1.1603,-1.1619,-1.1662,-1.1695,-1.1714,-1.1752,-1.1513,-1.1513,-1.1513,-1.1284,-1.1288,-1.1412,-1.1433,-1.1496,-1.1537,-1.159,-1.1631,-1.1617,-1.1667,-1.1702,-1.1846,-1.1884,-1.1898,-1.1938,-1.1735,-1.1735,-1.1735,-1.1736,-1.149,-1.1568,-1.1545,-1.1657,-1.1662,-1.1757,-1.18,-1.1787,-1.1877,-1.1821,-1.1859,-1.18,-1.1922,-1.1957,-1.174,-1.174,-1.1739,-1.1739,-1.1738,-1.1622,-1.166,-1.1686,-1.1781,-1.1853,-1.187,-1.1958,-1.1957,-1.1959,-1.1996,-1.2034,-1.2033,-1.2035,-1.2013,-1.2013,-1.2014,-1.2014,-1.2015,-1.2015,-1.175,-1.1777,-1.185,-1.1913,-1.1955,-1.201,-1.2051,-1.2093,-1.214,-1.2133,-1.2134,-1.2117,-1.1931,-1.1887,-1.2023,-1.2021,-1.202,-1.202,-1.2019,-1.1964,-1.1915,-1.2028,-1.207,-1.2144,-1.2217,-1.2214,-1.2299,-1.2334,-1.2377,-1.2351,-1.2212,-1.2202,-1.2187,-1.2151,-1.2347,-1.2347,-1.2347,-1.2347,-1.2079,-1.2071,-1.2187,-1.2254,-1.232,-1.2328,-1.2458,-1.249,-1.2516,-1.2538,-1.2508,-1.2458,-1.2443,-1.2442,-1.2422,-1.2388,-1.264,-1.2641,-1.2641,-1.2212,-1.2211,-1.2322,-1.2344,-1.2401,-1.2451,-1.2574,-1.2653,-1.2672,-1.2653,-1.2556,-1.2543,-1.2462,-1.2435,-1.2419,-1.2388,-1.2325,0,0]},{"header":{"parameterUnit":"m.s-1","parameterCategory":1,"la1":30.2992,"la2":30.254,"lo1":-89.0895,"lo2":-89.0443,"dy":0.0025,"dx":0.0025,"nx":19,"ny":19,"refTime":"2026-05-01T21:00:00:Z","depth":0,"parameterNumber":3,"parameterNumberName":"V-component_of_WINDS"},"data":[0,0,0,-7.1065,-7.1069,-7.1261,-7.1262,-7.1516,-7.1518,0,0,0,0,0,0,0,0,0,0,0,-7.1016,-7.1018,-7.1064,-7.1069,-7.1261,-7.1262,-7.1516,-7.1518,0,0,0,0,0,0,0,0,0,0,0,-7.1015,-7.1017,-7.102,-7.107,-7.1261,-7.1262,-7.1515,-7.1366,0,0,0,0,0,0,0,0,0,0,-7.1178,-7.1142,-7.1017,-7.102,-7.1071,-7.1261,-7.1262,-7.1359,-7.1376,-7.1434,0,-7.1491,0,-7.1509,-7.1536,-7.1537,0,0,0,-7.1062,-7.1128,-7.1173,-7.102,-7.1073,-7.1261,-7.1173,-7.1368,-7.1387,-7.1456,-7.1494,-7.1503,-7.1513,-7.1538,-7.1539,-7.1907,-7.1909,0,0,-7.1051,-7.1054,-7.116,-7.1186,-7.116,-7.1166,-7.1179,-7.1379,-7.142,-7.1495,-7.1509,-7.1517,-7.154,-7.1542,-7.1905,-7.1907,0,0,0,-7.1026,-7.1047,-7.1087,-7.1176,-7.121,-7.1172,-7.1186,-7.1411,-7.1424,-7.1512,-7.152,-7.1541,-7.1545,-7.1903,-7.1906,-7.2013,0,0,0,-7.1019,-7.1032,-7.1082,-7.1086,-7.1206,-7.1314,-7.1214,-7.141,-7.1432,-7.1519,-7.1541,-7.1547,-7.19,-7.1904,-7.2005,-7.2063,0,0,0,-7.1,-7.103,-7.1061,-7.1086,-7.1169,-7.131,-7.1334,-7.1415,-7.1438,-7.1537,-7.1548,-7.1899,-7.1904,-7.1998,-7.2052,-7.2162,0,0,0,-7.098,-7.1151,-7.1063,-7.1256,-7.1167,-7.1376,-7.1333,-7.1487,-7.1585,-7.1543,-7.1901,-7.1905,-7.1996,-7.2045,-7.2155,-7.2258,-7.23,0,0,-7.1197,-7.1177,-7.1291,-7.1217,-7.1443,-7.1346,-7.1586,-7.167,-7.1675,-7.1828,-7.1837,-7.2008,-7.2051,-7.2161,-7.2535,-7.257,0,0,0,-7.136,-7.1443,-7.1501,-7.1597,-7.1667,-7.1733,-7.1781,-7.1812,-7.1943,-7.1756,-7.2076,-7.2102,-7.2166,-7.2215,-7.2244,-7.2299,-7.1928,-7.1927,-7.1927,-7.1672,-7.1672,-7.186,-7.1883,-7.1974,-7.2023,-7.2097,-7.2147,-7.2117,-7.2192,-7.2239,-7.2467,-7.2524,-7.2546,-7.2604,-7.2291,-7.2292,-7.2292,-7.2292,-7.1991,-7.2108,-7.2065,-7.2233,-7.223,-7.237,-7.2422,-7.2396,-7.2524,-7.2431,-7.2488,-7.2389,-7.2583,-7.2634,-7.23,-7.2299,-7.2298,-7.2297,-7.2296,-7.2197,-7.2253,-7.229,-7.2428,-7.2533,-7.2548,-7.2674,-7.2665,-7.2657,-7.2713,-7.2761,-7.276,-7.2758,-7.2736,-7.2737,-7.2738,-7.2739,-7.2739,-7.274,-7.2397,-7.2435,-7.2544,-7.2634,-7.2694,-7.2772,-7.2822,-7.2879,-7.2941,-7.2924,-7.2925,-7.2888,-7.2602,-7.2532,-7.2752,-7.275,-7.2748,-7.2747,-7.2746,-7.2724,-7.2649,-7.2818,-7.2879,-7.2983,-7.3089,-7.3076,-7.3194,-7.324,-7.3302,-7.3253,-7.3043,-7.3021,-7.2998,-7.294,-7.3252,-7.3252,-7.3252,-7.3252,-7.2899,-7.2888,-7.3059,-7.3157,-7.325,-7.3256,-7.3444,-7.3484,-7.3512,-7.354,-7.3493,-7.3414,-7.3391,-7.3382,-7.3351,-7.3297,-7.3693,-7.3693,-7.3694,-7.3101,-7.3098,-7.3263,-7.3293,-7.3373,-7.3442,-7.3619,-7.373,-7.3746,-7.3711,-7.3562,-7.3543,-7.3416,-7.3374,-7.3339,-7.329,-7.319,0,0]}]]